Location: Jackson Park
(37.2862°N, 79.9123°W)
Time: 14:07:52
(UTC+00:00)

Vanguard 2 - Pass Details

Date: 13 May 2026
Orbit: 553 x 2894 km, 32.9° (Epoch: 6 June)

Event Time Altitude Azimuth Distance (km) Brightness Sun altitude
Rises 14:27:30 0° 279° (W) 5,723 11.6 48.7°
Reaches altitude 10° 14:32:55 10° 267° (W) 4,257 11.1 49.8°
Maximum altitude 14:40:11 21° 225° (SW) 2,800 10.4 51.2°
Drops below altitude 10° 14:45:31 10° 179° (S) 2,986 10.9 52.2°
Sets 14:48:31 0° 162° (SSE) 3,626 11.3 52.7°
